Regional Weather Roundup
Issued by NWS San Angelo, TX

Home | Current Version | Previous Version | Text Only | Print | Product List | Glossary On
Versions: 1 2 3 4 5 6 7 8 9 10 11 12 13 14 15 16 17 18 19 20 21 22 23 24 25 26 27 28 29 30 31 32 33 34 35 36 37 38 39 40 41 42 43 44 45 46 47 48 49 50
898
ASUS44 KSJT 032110
RWRSJT
WEST CENTRAL TEXAS REGIONAL WEATHER ROUNDUP
NATIONAL WEATHER SERVICE SAN ANGELO TX
300 PM CST SAT DEC 03 2016

NOTE: "FAIR" INDICATES FEW OR NO CLOUDS BELOW 12,000 FEET WITH NO
SIGNIFICANT WEATHER AND/OR OBSTRUCTIONS TO VISIBILITY.

TXZ049-054-064>066-071>073-076>078-098-099-113-114-127-128-139-140-
154-155-168>170-032200
...LOCATIONS ACROSS WEST CENTRAL TEXAS...

CITY           SKY/WX    TMP DP  RH WIND       PRES   REMARKS
SAN ANGELO     CLOUDY    47  46  97 NE10      29.93F
ABILENE        CLOUDY    46  45  96 NE3       29.98F
DYESS AFB      CLOUDY    46  45  98 NE5       29.97F
JUNCTION       CLOUDY    49  46  90 NE7       29.93F
SWEETWATER     CLOUDY    44  44 100 NE5       29.99F
BROWNWOOD      CLOUDY    48  46  93 NE6       29.97F FOG
COLEMAN        CLOUDY    47  46  96 NE8       29.97F FOG
SONORA         LGT RAIN  48  46  93 N14       29.94F
OZONA          CLOUDY    45  45 100 NE13      29.95R WCI  38
BRADY          NOT AVBL
$$

TEXAS PANHANDLE/OKLAHOMA PANHANDLE

CITY           SKY/WX    TMP DP  RH WIND       PRES   REMARKS
AMARILLO       CLOUDY    37  37 100 CALM      30.01F FOG
BORGER         CLOUDY    39  38  96 CALM      30.02F FOG
CANADIAN       CLOUDY    43  41  91 S7        30.03F WCI  39
DALHART        CLOUDY    40  37  89 SW10      30.00S WCI  33
DUMAS          CLOUDY    35  34  97 S3        30.00F
GUYMON         NOT AVBL
HEREFORD       CLOUDY    39  39  99 CALM      30.02S
PAMPA          CLOUDY    42  40  93 S6        30.01F FOG     WCI  38
PERRYTON       CLOUDY    42  40  95 S6        30.02F WCI  38
$$

SOUTHERN PANHANDLE/SOUTH PLAINS/ROLLING PLAINS

CITY           SKY/WX    TMP DP  RH WIND       PRES   REMARKS
LUBBOCK        DRIZZLE   41  39  93 NE8       29.99F FOG     WCI  36
SNYDER         CLOUDY    42  41  96 NE7       29.99F WCI  37
CHILDRESS      CLOUDY    44  42  93 E8        30.03F FOG     WCI  39
SEMINOLE       CLOUDY    40  40  99 NE10      29.98F FOG     WCI  33
$$

PERMIAN BASIN

CITY           SKY/WX    TMP DP  RH WIND       PRES   REMARKS
MIDLAND        CLOUDY    43  40  89 NE16      29.95F FOG     WCI  35
ODESSA         CLOUDY    43  40  89 NE15      29.96F FOG     WCI  36
WINK           CLOUDY    43  42  97 NE9       29.97F WCI  38
$$

FAR WEST/SOUTHWEST MOUNTAINS/TRANS PECOS

CITY           SKY/WX    TMP DP  RH WIND       PRES   REMARKS
ALPINE         CLOUDY    39  39  98 N10       29.98S WCI  32
DRYDEN           N/A     51  47  86 NE12      29.88F
EL PASO        PTSUNNY   45  38  76 N14       29.93F WCI  38
FORT STOCKTON  LGT RAIN  44  44 100 N8        29.95S FOG     WCI  39
GUADALUPE PASS RAIN      33  33 100 NE29      29.94R VSB 3/4 WCI  19
MARFA          CLOUDY    39  36  89 NE17G25   29.90F WCI  30
PECOS          DRIZZLE   43  42  97 NW12      29.98F WCI  37
$$

DALLAS/FORT WORTH METROPLEX

CITY           SKY/WX    TMP DP  RH WIND       PRES   REMARKS
DFW AIRPORT    CLOUDY    51  47  86 VRB3      29.98R
FTW MEACHAM    CLOUDY    51  47  86 NE7       29.98F
DAL-EXECUTIVE  CLOUDY    50  49  96 E14       29.95F
GRAND PRAIRIE  CLOUDY    50  50 100 NE8       30.04
ADDISON        CLOUDY    50  50 100 E10G21    29.97F
MESQUITE       CLOUDY    48  48 100 NE7       29.99F
LANCASTER      CLOUDY    51  47  88 E7        29.98F
$$

NORTH CENTRAL TEXAS

CITY           SKY/WX    TMP DP  RH WIND       PRES   REMARKS
SHRMAN/DENISON CLOUDY    47  47 100 E12G20    30.01F
GAINESVILLE    CLOUDY    46  44  92 E8        30.05R
BRIDGEPORT     DRIZZLE   47  47 100 E5        30.03R
DENTON         CLOUDY    48  46  93 NE8       30.01R
WAXAHACHIE     CLOUDY    49  49 100 E8G16     29.97F
GRANBURY       CLOUDY    50  48  90 E6        30.01R FOG
$$

WESTERN NORTH TEXAS

CITY           SKY/WX    TMP DP  RH WIND       PRES   REMARKS
WICHITA FALLS  CLOUDY    45  44  97 E12       30.03F FOG     WCI  39
VERNON         CLOUDY    46  42  85 E8        30.05S
BRECKENRIDGE   CLOUDY    48  48  97 NE6       29.98F FOG
COMANCHE       CLOUDY    48  48 100 E6        29.97F FOG
$$

CENTRAL AND SOUTH CENTRAL TEXAS

CITY           SKY/WX    TMP DP  RH WIND       PRES   REMARKS
AUSTIN/BERGSTM RAIN      52  50  93 N14       29.91F FOG
WACO           LGT RAIN  50  49  96 NE5       29.95F
HILLSBORO      CLOUDY    50  48  93 E5        29.97S
TEMPLE         LGT RAIN  50  49  96 NE10      29.92F
KILLEEN-GRAY   LGT RAIN  49  49  97 NE9       29.91F FOG
FORT HOOD      LGT RAIN  49  49 100 NE9       29.89F FOG
GEORGETOWN     LGT RAIN  52  46  82 N7        29.93F
LAGO VISTA     HVY RAIN  50  49  97 N5        29.93R
SAN MARCOS     LGT RAIN  54  48  82 NE20      29.90F
NEW BRAUNFELS  RAIN      51  50  96 N13       29.88R FOG
RANDOLPH AFB   RAIN      50  50 100 NE9       29.88F
SAN ANTONIO    LGT RAIN  51  49  92 N12       29.88F
STINSON        TSTM      53  50  89 NE7       29.87R FOG
PLEASANTON     NOT AVBL
LA GRANGE      CLOUDY    53  51  95 N12       29.88F
GIDDINGS       RAIN      50  49  97 NE8       29.94F
$$

EAST TEXAS

CITY           SKY/WX    TMP DP  RH WIND       PRES   REMARKS
PARIS          CLOUDY    46  43  87 E13       30.05F
CLARKSVILLE    NOT AVBL
TYLER          LGT RAIN  49  48  97 NE9       29.96F
LONGVIEW       NOT AVBL
PALESTINE      FLURRIES  50  49  98 NE5       29.96S
NACOGDOCHES    CLOUDY    48  46  93 E10       29.92F
$$

TEXAS HILL COUNTRY AND EDWARDS PLATEAU

CITY           SKY/WX    TMP DP  RH WIND       PRES   REMARKS
LLANO          CLOUDY    50  50 100 CALM      30.00R FOG
HORSESHOE BAY  LGT RAIN  51  50  97 CALM      29.92F
KERRVILLE      LGT RAIN  49  47  95 NW5       29.91F
FREDERICKSBRG  LGT RAIN  48  46  93 NE8       29.91F
ROCKSPRINGS    CLOUDY    46  46 100 N9G16     29.94R
HONDO          LGT RAIN  55  53  93 NE15      29.88F
UVALDE         LGT RAIN  55  54  94 NE9       29.88F
DEL RIO        CLOUDY    55  54  96 NW8       29.85F
$$

SOUTHEAST TEXAS

CITY           SKY/WX    TMP DP  RH WIND       PRES   REMARKS
COLLEGE STN    LGT RAIN  51  49  92 N8        29.93R
CALDWELL       NOT AVBL
CROCKETT       CLOUDY    48  46  93 NE8       29.95F
BRENHAM        CLOUDY    53  51  94 NE5       29.92R
HUNTSVILLE     CLOUDY    51  47  86 E8        29.90F
CONROE         LGT RAIN  51  50  96 NE6       29.90S
HOUSTON BUSH   CLOUDY    55  52  89 N10       29.88S
HOUSTON HOBBY  LGT RAIN  56  54  93 N10       29.85F FOG
PERLAND        RAIN      58  55  90 N7        29.87S FOG
WHARTON        CLOUDY    55  53  93 N10       29.87F
$$

THE UPPER TEXAS COAST

CITY           SKY/WX    TMP DP  RH WIND       PRES   REMARKS
ORANGE         HVY RAIN N/A N/A N/A NE10      29.89F
PORT ARTHUR    RAIN      54  52  93 NE15      29.85F FOG
GALVESTON      LGT RAIN  61  60  97 N10       29.84S FOG
ANGLETON       LGT RAIN  58  57  97 N12       29.84R FOG
BAY CITY       HVY RAIN  58  57  96 N8        29.84S
$$

TEXAS COASTAL BEND, RIO GRANDE PLAINS DEEP SOUTH TEXAS

CITY           SKY/WX    TMP DP  RH WIND       PRES   REMARKS
VICTORIA       CLOUDY    54  53  97 N10       29.85F
BEEVILLE       LGT RAIN  58  55  92 NE10      29.84R
ROCKPORT         N/A    N/A N/A N/A MISG      29.82F
PORT ARANSAS   CLOUDY    60  58  92 N18       29.80S
PORT LAVACA    LGT RAIN  56  55  97 N15       29.84F
CORPUS CHRISTI CLOUDY    61  56  83 NE16      29.80F
KINGSVILLE NAS CLOUDY    68  58  70 N13       29.80R
COTULLA        HVY RAIN  56  53  90 N9        29.88R FOG
LAREDO         CLOUDY    58  56  93 N16       29.84F
BROWNSVILLE    PTSUNNY   82  70  66 S18       29.74S
PORT ISABEL    MOSUNNY   82  72  71 S20G30    29.72F HAZE
HEBBRONVILLE   CLOUDY    59  58  96 N13       29.83R FOG
MCALLEN        PTSUNNY   87  69  54 SW6       29.72F
WESLACO        PTSUNNY   83  71  66 SE16      29.71S
FALFURRIAS     CLOUDY    66  61  82 N8G16     29.78R
EDINBURG       CLOUDY    85  68  56 SE7       29.72F
$$




USA.gov is the U.S. government's official web portal to all federal, state and local government web resources and services.